Tracking 30298 objects as of 28-Apr-2025
HD Live streaming from Space Station
objects crossing your sky now

SATCOM 3 DEB

Track SATCOM 3 DEB now!


NORAD ID: 32993
Int'l Code: 1979-101U
Perigee: 8,759.3 km
Apogee: 35,291.4 km
Inclination: 7.3 °
Period: 793.7 minutes
Semi major axis: 28396 km
RCS: 0.1617 m2 (medium)
Launch date: December 7, 1979
Source: United States (US)
Launch site: AIR FORCE EASTERN TEST RANGE (AFETR)

Note: This is SATELLITE DEBRIS
Your satellite tracking list
Your tracking list is empty




NASA's NSSDC Master Catalog

Two Line Element Set (TLE):
1 32993U 79101U   25117.55260244 -.00000075  00000-0  00000-0 0  9991
2 32993   7.3332 218.2892 4671741 221.3293 279.6105  1.81430060121164
Source of the keplerian elements: AFSPC